Weather History for Missoula, MT

Change the Weather History Date:

Friday, September 2, 2011

  Actual Average Record
Temperature  
Mean Temperature 59 °F 63 °F  
Max Temperature 74 °F 79 °F 96 °F (1998)
Min Temperature 44 °F 46 °F 34 °F (1973)
Degree Days  
Heating Degree Days 6 4  
Month to date heating degree days 12 8  
Since 1 July heating degree days 45 92  
Cooling Degree Days 0 1  
Month to date cooling degree days 0 3  
Year to date cooling degree days 267 320  
Growing Degree Days 10 (Base 50)    
Moisture  
Dew Point 32 °F    
Average Humidity 43    
Maximum Humidity 66    
Minimum Humidity 19    
Precipitation  
Precipitation 0.00 in 0.04 in 0.71 in (1898)
Month to date precipitation T 0.08  
Year to date precipitation 10.73 10.11  
Snow  
Snow 0.00 in - - ()
Month to date snowfall 0.0  
Year to date snowfall 42.9  
Since 1 July snowfall 0.0  
Snow Depth 0.00 in    
Sea Level Pressure  
Sea Level Pressure 30.07 in    
Wind  
Wind Speed 8 mph (WNW)    
Max Wind Speed 22 mph    
Max Gust Speed 28 mph    
Visibility 10 miles    
Events      
T = Trace of Precipitation, MM = Missing Value Source: NWS Daily Summary

Daily Weather History Graph

Daily Weather History Graph

Search for Another Location

Airport:

Trip Planner

Search our weather history database for the weather conditions in past years. The results will help you decide how hot, cold, wet, or windy it might be!

Date:

Astronomy

Sep. 02, 2011 Rise Set
Actual Time 6:56 AM MDT 8:14 PM MDT
Civil Twilight 6:25 AM MDT 8:45 PM MDT
Nautical Twilight 5:47 AM MDT 9:23 PM MDT
Astronomical Twilight 5:06 AM MDT 10:03 PM MDT
Moon 1:02 PM MDT (9/2) 10:22 PM MDT (9/2)
Length of Visible Light 14h 20m
Length of Day
13h 17m
Waxing Crescent, 28% of the Moon is Illuminated
Sep 2
Waxing Crescent
Sep 4
First Quarter
Sep 12
Full
Sep 20
Last Quarter
Sep 27
New

Hourly Weather History & Observations

Time (MDT) Temp. Windchill Dew Point Humidity Pressure Visibility Wind Dir Wind Speed Gust Speed Precip Events Conditions
12:53 AM 46.9 °F - 33.1 °F 59% 30.05 in 10.0 mi SSW 3.5 mph - N/A   Clear
1:53 AM 48.0 °F - 33.1 °F 56% 30.03 in 10.0 mi Calm Calm - N/A   Partly Cloudy
2:53 AM 46.0 °F - 33.1 °F 61% 30.02 in 10.0 mi Calm Calm - N/A   Clear
3:53 AM 46.0 °F 44.8 °F 36.0 °F 68% 30.01 in 10.0 mi SE 3.5 mph - N/A   Clear
4:53 AM 46.9 °F - 36.0 °F 66% 30.00 in 10.0 mi Calm Calm - N/A   Mostly Cloudy
5:53 AM 48.0 °F - 37.0 °F 66% 29.99 in 10.0 mi SSW 4.6 mph - N/A   Overcast
6:53 AM 52.0 °F - 34.0 °F 50% 29.98 in 10.0 mi East 8.1 mph - N/A   Overcast
7:53 AM 52.0 °F - 34.0 °F 50% 30.00 in 10.0 mi ESE 6.9 mph - N/A   Overcast
8:53 AM 54.0 °F - 34.0 °F 47% 30.02 in 10.0 mi SE 9.2 mph - N/A   Overcast
9:53 AM 60.1 °F - 35.1 °F 39% 30.04 in 10.0 mi West 5.8 mph - N/A   Overcast
10:53 AM 64.0 °F - 35.1 °F 34% 30.05 in 10.0 mi WSW 12.7 mph - N/A   Mostly Cloudy
11:53 AM 66.0 °F - 34.0 °F 30% 30.06 in 10.0 mi WNW 13.8 mph 17.3 mph N/A   Scattered Clouds
12:53 PM 68.0 °F - 30.9 °F 25% 30.06 in 10.0 mi West 13.8 mph 20.7 mph N/A   Scattered Clouds
1:53 PM 72.0 °F - 30.0 °F 21% 30.06 in 10.0 mi West 11.5 mph 23.0 mph N/A   Clear
2:53 PM 73.0 °F - 28.0 °F 19% 30.06 in 10.0 mi WNW 17.3 mph 26.5 mph N/A   Partly Cloudy
3:53 PM 72.0 °F - 28.9 °F 20% 30.07 in 10.0 mi West 17.3 mph - N/A   Clear
4:53 PM 73.0 °F - 28.9 °F 20% 30.07 in 10.0 mi West 16.1 mph 25.3 mph N/A   Mostly Cloudy
5:53 PM 68.0 °F - 30.0 °F 24% 30.09 in 10.0 mi NW 9.2 mph - N/A   Partly Cloudy
6:53 PM 69.1 °F - 30.9 °F 24% 30.10 in 10.0 mi WNW 12.7 mph - N/A   Scattered Clouds
7:53 PM 66.0 °F - 30.9 °F 27% 30.11 in 10.0 mi NW 8.1 mph - N/A   Clear
8:53 PM 60.1 °F - 30.9 °F 33% 30.15 in 10.0 mi North 3.5 mph - N/A   Scattered Clouds
9:53 PM 57.9 °F - 28.9 °F 33% 30.17 in 10.0 mi North 3.5 mph - N/A   Scattered Clouds
10:53 PM 54.0 °F - 28.9 °F 38% 30.19 in 10.0 mi NNW 6.9 mph - N/A   Mostly Cloudy
11:53 PM 52.0 °F - 28.0 °F 40% 30.22 in 10.0 mi NW 5.8 mph - N/A   Mostly Cloudy